Regional Weather Roundup
Issued by NWS

Home | Current Version | Previous Version | Text Only | Print | Product List | Glossary Off
Versions: 1 2 3 4 5 6 7 8 9 10 11 12 13 14 15 16 17 18 19 20 21 22 23 24 25 26 27 28 29 30 31 32 33 34 35 36 37 38 39 40 41 42 43 44 45 46 47 48 49 50

326
ASUS44 KJAN 010710
RWRMS

MISSISSIPPI HOURLY WEATHER ROUNDUP
NATIONAL WEATHER SERVICE JACKSON MS
200 AM CDT WED OCT 01 2014

NOTE: "FAIR: INDICATES FEW OR NO CLOUDS BELOW 12,000 FEET WITH NO
SIGNIFICANT WEATHER AND/OR OBSTRUCTIONS TO VISIBILITY.

MSZ001>002-007>008-010>013-018>021-025>028-034>036-010800-
NORTHWEST MISSISSIPPI

CITY           SKY/WX    TMP DP  RH WIND       PRES   REMARKS
CLARKSDALE     FAIR      66  64  94 CALM      29.89R
CLEVELAND      FAIR      73  66  78 SE6       29.87R
GREENWOOD      CLEAR     68  60  75 S3        29.88R
GREENVILLE     CLEAR     70  63  78 S5        29.87R
GRENADA        FAIR      63  63 100 CALM      29.90R
OLIVE BRANCH   CLEAR     64  64 100 CALM      29.90R
OXFORD         FAIR      64  59  82 CALM      29.92R
TUNICA         MOSUNNY   64  61  88 CALM      29.89R
$$

MSZ003>006-009-014>017-022>024-029>033-037>039-010800-
NORTHEAST MISSISSIPPI

CITY           SKY/WX    TMP DP  RH WIND       PRES   REMARKS
COLUMBUS AFB   CLEAR     63  63 100 CALM      29.90S
CORINTH        FOG       61  59  94 CALM      29.90S VSB 1/4
GOLDN TRIANGLE CLEAR     64  55  72 CALM      29.90S
STARKVILLE     FAIR      61  59  94 CALM      29.90S
TUPELO         PTCLDY    65  61  87 CALM      29.90S
$$

MSZ040-058-010800-
CENTRAL MISSISSIPPI

CITY           SKY/WX    TMP DP  RH WIND       PRES   REMARKS
JACKSON INTL   CLEAR     66  64  93 CALM      29.89S
JACKSON HAWKNS CLEAR     71  65  81 SE5       29.89S
MERIDIAN KEY   CLEAR     63  61  93 S3        29.91R
MERIDIAN NAS   CLEAR     64  60  87 CALM      29.91R
RAYMOND        FAIR      66  63  88 CALM      29.89R HAZE
VICKSBURG      CLEAR     75  69  81 S7        29.87R
$$

MSZ059>079-010800-
SOUTH MISSISSIPPI

CITY           SKY/WX    TMP DP  RH WIND       PRES   REMARKS
BROOKHAVEN     FAIR      72  72 100 S3        29.91S FOG
COLUMBIA       CLOUDY    68  68 100 CALM      29.89R FOG
HATTIESBURG    CLEAR     68  66  93 CALM      29.91S
MCCOMB         CLEAR     71  69  93 SE5       29.90R FOG
NATCHEZ        MOCLDY    73  70  88 S6        29.89R
PINE BELT      CLEAR     66  64  94 CALM      29.91S
$$

MSZ080>082-010800-
COASTAL MISSISSIPPI

CITY           SKY/WX    TMP DP  RH WIND       PRES   REMARKS
BILOXI         CLEAR     73  73 100 NE2       29.90R
PASCAGOULA     CLEAR     65  64  97 CALM      29.90R FOG
GULFPORT       PTCLDY    73  70  90 CALM      29.89R
$$



USA.gov is the U.S. government's official web portal to all federal, state and local government web resources and services.